Погода в Итагуаи

Бразилия     22°52′09″S   43°47′17″W
темп.,
°C
ветер,
м/с
пор.,
м/с
влажн.,
%
обл.,
%
осадки,
мм/ч
давл.,
гПа
погр.,
м
8 декабря, ср
ср800:00+18юз1398100 1.9 101599
03:00+18юз2497100 3.4 1013126
06:00+18з0195100 1.0 101434
09:00+20ю1291100 2.8 1016314
12:00+21ю359187 3.4 1015677
15:00+20ю3590100 5.1 1014542
18:00+18ю2596100 1.3 1014286
21:00+17ссз1197100 6.7 101644
9 декабря, чт
чт900:00+17сз1195100 0.1 101515
03:00+16сз11965 0.1 101413
06:00+16сз119418 0.0 101555
09:00+23юз126844 0.1 1015977
12:00+25ю546169 0.3 10141394
15:00+23ю556654 0.3 10131114
18:00+20ююв36800 0.0 1013375
21:00+17зсз119420 0.0 101511
10 декабря, пт
пт1000:00+17сз119540 0.0 101417
03:00+16сз11963 0.0 101317
06:00+17сз11900 0.0 101359
09:00+24всв016314 0.0 1013936
12:00+25ююв436238 0.1 10111026
15:00+24ю446657 0.3 10101028
18:00+21ю358033 0.0 1011495
21:00+19юз119139 0.0 101217
11 декабря, сб
сб1100:00+18сз119246 0.0 101122
03:00+18ссз229113 0.0 100963
06:00+19ссз26894 0.0 1010191
09:00+27ссз45587 0.0 1010965
12:00+32с3339100 0.0 10081803
15:00+31ююв2242100 0.0 10061165
18:00+24ююз1282100 0.0 100738
21:00+22сз2184100 0.0 100817
12 декабря, вс
вс1200:00+21ссз228164 0.0 100746
03:00+21ссз3488100 0.0 100781
06:00+21сз3687100 0.0 1008213
09:00+30ссз475655 0.0 1008781
12:00+35ссв443998 0.0 10071708
15:00+31ю345290 0.0 1006815
18:00+25ю118182 0.1 100753
21:00+23з118197 0.3 100913